Weather History for Defiance, OH

Change the Weather History Date:

Thursday, April 17, 2014

  Actual Average Record
Temperature  
Mean Temperature 50 °F -  
Max Temperature 69 °F 62 °F 84 °F (1976)
Min Temperature 30 °F 37 °F 24 °F (1962)
Degree Days  
Heating Degree Days 16    
Moisture  
Dew Point 28 °F    
Average Humidity 49    
Maximum Humidity 78    
Minimum Humidity 21    
Precipitation  
Precipitation 0.00 in - - ()
Sea Level Pressure  
Sea Level Pressure 30.29 in    
Wind  
Wind Speed 8 mph (SSE)    
Max Wind Speed 23 mph    
Max Gust Speed 30 mph    
Visibility 10 miles    
Events      
Averages and records for this station are not official NWS values.
T = Trace of Precipitation, MM = Missing Value Source: NWS Daily Summary

Daily Weather History Graph

Daily Weather History Graph

Search for Another Location

Airport:

Trip Planner

Search our weather history database for the weather conditions in past years. The results will help you decide how hot, cold, wet, or windy it might be!

Date:

Astronomy

Apr. 17, 2014 Rise Set
Actual Time 6:55 AM EDT 8:20 PM EDT
Civil Twilight 6:26 AM EDT 8:49 PM EDT
Nautical Twilight 5:51 AM EDT 9:23 PM EDT
Astronomical Twilight 5:15 AM EDT 10:00 PM EDT
Moon 11:06 PM EDT (4/17) 8:25 AM EDT (4/17)
Length of Visible Light 14h 22m
Length of Day
13h 25m
Waning Gibbous, 94% of the Moon is Illuminated
Apr 17
Waning Gibbous
Apr 22
Last Quarter
Apr 29
New
May 6
First Quarter
May 14
Full

Hourly Weather History & Observations

Time (EDT) Temp. Windchill Dew Point Humidity Pressure Visibility Wind Dir Wind Speed Gust Speed Precip Events Conditions
12:53 AM 33.1 °F 26.9 °F 27.0 °F 78% 30.35 in 10.0 mi East 6.9 mph - N/A   Clear
1:53 AM 33.1 °F 26.1 °F 27.0 °F 78% 30.33 in 10.0 mi East 8.1 mph - N/A   Clear
2:53 AM 33.1 °F 26.1 °F 26.1 °F 75% 30.32 in 10.0 mi East 8.1 mph - N/A   Clear
3:53 AM 33.1 °F 26.9 °F 26.1 °F 75% 30.32 in 10.0 mi East 6.9 mph - N/A   Clear
4:53 AM 32.0 °F 26.4 °F 25.0 °F 75% 30.32 in 10.0 mi East 5.8 mph - N/A   Clear
5:53 AM 30.9 °F 26.2 °F 24.1 °F 76% 30.32 in 10.0 mi East 4.6 mph - N/A   Clear
6:53 AM 30.9 °F 26.2 °F 23.0 °F 72% 30.33 in 10.0 mi East 4.6 mph - N/A   Clear
7:53 AM 34.0 °F 28.8 °F 25.0 °F 70% 30.33 in 10.0 mi East 5.8 mph - N/A   Clear
8:53 AM 39.0 °F 34.0 °F 26.1 °F 60% 30.33 in 10.0 mi ESE 6.9 mph - N/A   Clear
9:53 AM 45.0 °F 39.7 °F 27.0 °F 49% 30.32 in 10.0 mi South 10.4 mph - N/A   Clear
10:53 AM 51.1 °F - 30.0 °F 44% 30.32 in 10.0 mi South 9.2 mph - N/A   Clear
11:53 AM 57.0 °F - 32.0 °F 39% 30.31 in 10.0 mi SSW 9.2 mph 17.3 mph N/A   Clear
1:53 PM 64.9 °F - 28.9 °F 26% 30.27 in 10.0 mi SW 11.5 mph 19.6 mph N/A   Clear
2:53 PM 66.9 °F - 26.1 °F 21% 30.26 in 10.0 mi SW 19.6 mph 28.8 mph N/A   Clear
3:53 PM 68.0 °F - 27.0 °F 21% 30.24 in 10.0 mi SSW 23.0 mph 29.9 mph N/A   Clear
4:53 PM 69.1 °F - 28.9 °F 22% 30.23 in 10.0 mi SW 13.8 mph 20.7 mph N/A   Clear
5:53 PM 68.0 °F - 30.0 °F 24% 30.24 in 10.0 mi SSW 17.3 mph 26.5 mph N/A   Clear
6:53 PM 66.0 °F - 27.0 °F 23% 30.24 in 10.0 mi SW 15.0 mph 20.7 mph N/A   Clear
7:53 PM 64.0 °F - 30.0 °F 28% 30.24 in 10.0 mi SW 4.6 mph - N/A   Clear
8:53 PM 57.9 °F - 32.0 °F 37% 30.26 in 10.0 mi SSW 4.6 mph - N/A   Clear
9:53 PM 55.0 °F - 34.0 °F 45% 30.28 in 10.0 mi South 6.9 mph - N/A   Clear
10:53 PM 55.9 °F - 33.1 °F 42% 30.26 in 10.0 mi South 3.5 mph - N/A   Clear
11:53 PM 53.1 °F - 34.0 °F 48% 30.26 in 10.0 mi Calm Calm - N/A   Clear